Total_Precipitation_Accumulation
1.84 1.95 2.04 2.00 1.94 1.94 2.10 2.29 2.45 2.39 2.02 1.71 1.61 1.53 1.50 1.50 1.60 1.38 1.39 1.47 1.39 1.29 1.22 1.18 1.26 1.34 1.42 1.46 1.55 1.70 1.88 1.94 1.94 2.06 2.31 2.58 2.88 3.13
1.59 1.70 1.75 1.69 1.72 1.71 1.76 1.87 2.08 2.24 2.08 1.59 1.44 1.40 1.46 1.33 1.40 1.24 1.29 1.33 1.22 1.14 1.05 1.01 1.00 1.09 1.15 1.14 1.19 1.29 1.47 1.56 1.57 1.59 1.73 1.97 2.24 2.54
1.37 1.37 1.42 1.46 1.56 1.49 1.53 1.62 1.77 1.96 2.01 1.65 1.45 1.41 1.45 1.46 1.45 1.39 1.25 1.13 1.08 1.09 1.01 0.99 0.94 0.94 1.02 1.01 1.01 1.04 1.15 1.27 1.35 1.37 1.39 1.52 1.70 1.90
1.24 1.25 1.25 1.30 1.41 1.44 1.45 1.45 1.55 1.71 1.82 1.77 1.57 1.44 1.41 1.42 1.44 1.44 1.19 0.99 0.96 1.07 1.02 0.96 0.97 0.93 0.96 0.99 0.98 0.95 0.92 0.99 1.05 1.06 1.07 1.17 1.34 1.55
1.20 1.17 1.15 1.23 1.27 1.29 1.31 1.33 1.37 1.38 1.53 1.53 1.37 1.31 1.27 1.28 1.43 1.42 1.32 1.27 0.93 0.89 0.93 0.88 0.91 0.90 0.87 0.89 0.91 0.90 0.84 0.82 0.85 0.88 0.92 0.99 1.12 1.27
1.06 1.06 1.08 1.06 1.08 1.15 1.16 1.26 1.35 1.44 1.49 1.48 1.34 1.22 1.24 1.28 1.51 1.58 1.50 1.35 1.13 0.82 0.85 0.82 0.82 0.82 0.82 0.86 0.82 0.82 0.85 0.84 0.87 0.92 0.94 0.91 0.95 1.01
1.03 1.01 0.95 0.93 0.93 0.97 0.96 1.08 1.25 1.43 1.49 1.52 1.43 1.31 1.30 1.46 1.51 1.44 1.41 1.30 1.14 0.94 0.94 0.86 0.89 1.06 1.28 1.34 1.13 0.90 0.86 0.88 0.94 0.97 1.03 0.97 0.93 0.92
1.05 1.02 0.92 0.84 0.77 0.79 0.78 0.84 1.03 1.24 1.43 1.57 1.50 1.41 1.35 1.46 1.55 1.49 1.53 1.54 1.41 1.10 1.13 1.04 1.05 1.43 1.83 2.01 1.60 1.06 0.91 0.91 0.95 1.00 1.04 1.01 0.92 0.86
1.10 1.06 0.87 0.74 0.82 0.81 0.81 0.78 0.82 0.92 1.19 1.50 1.63 1.50 1.45 1.54 1.69 1.66 1.67 1.68 1.58 1.31 1.38 1.36 1.30 1.58 1.61 1.71 1.65 1.24 1.11 1.06 1.02 1.04 1.06 1.04 0.97 0.87
0.97 0.98 1.04 1.04 0.90 0.85 0.79 0.83 0.91 0.97 1.02 1.11 1.36 1.40 1.29 1.35 1.55 1.60 1.65 1.62 1.53 1.46 1.51 1.59 1.44 1.53 1.44 1.75 1.92 1.74 1.53 1.38 1.25 1.20 1.16 1.07 1.01 0.97
0.78 0.81 0.89 0.94 0.88 0.80 0.80 0.92 1.01 1.04 0.90 0.98 1.07 1.23 1.30 1.25 1.26 1.38 1.61 1.78 1.76 1.54 1.47 1.57 1.56 1.60 1.71 2.01 2.01 1.97 1.86 1.65 1.47 1.31 1.22 1.12 1.04 1.06
0.82 0.84 0.81 0.76 0.78 0.75 0.80 0.99 1.09 1.07 1.12 1.28 1.43 1.52 1.47 1.39 1.27 1.36 1.65 1.86 1.89 1.80 1.52 1.65 1.78 1.90 2.19 2.27 2.15 1.95 1.90 1.85 1.68 1.52 1.38 1.21 1.09 1.03
0.85 0.89 0.82 0.70 0.69 0.68 0.75 0.92 1.08 1.16 1.43 1.74 1.78 1.67 1.57 1.50 1.41 1.38 1.53 1.72 1.89 1.91 1.61 1.81 2.00 2.18 2.41 2.33 2.15 2.00 1.89 1.84 1.82 1.85 1.78 1.52 1.25 1.10
0.90 0.86 0.77 0.72 0.63 0.63 0.71 0.89 1.01 1.25 1.61 1.85 1.74 1.53 1.39 1.31 1.27 1.29 1.38 1.49 1.66 1.71 1.65 1.83 2.17 2.33 2.41 2.26 2.11 1.93 1.89 1.97 1.99 2.02 2.02 1.88 1.57 1.41
0.79 0.83 0.77 0.74 0.71 0.83 0.92 1.04 1.17 1.39 1.66 1.68 1.52 1.39 1.31 1.26 1.19 1.24 1.28 1.33 1.33 1.30 1.28 1.50 1.90 2.16 2.34 2.31 2.11 1.91 1.93 2.15 2.24 2.26 2.20 2.05 1.84 1.62
0.70 0.85 0.94 0.95 0.96 1.07 1.17 1.28 1.37 1.46 1.48 1.43 1.32 1.30 1.23 1.23 1.20 1.20 1.26 1.27 1.34 1.34 1.26 1.33 1.58 1.87 2.06 2.02 2.02 1.98 1.96 2.36 2.52 2.43 2.39 2.38 2.19 1.94
0.69 0.90 1.09 1.15 1.21 1.27 1.28 1.33 1.39 1.36 1.33 1.30 1.29 1.25 1.21 1.21 1.22 1.23 1.30 1.26 1.26 1.28 1.34 1.37 1.46 1.58 1.62 1.69 1.82 1.91 2.02 2.24 2.40 2.40 2.41 2.55 2.45 2.18
0.77 1.01 1.20 1.26 1.28 1.30 1.30 1.32 1.32 1.26 1.20 1.22 1.26 1.24 1.24 1.23 1.25 1.31 1.38 1.34 1.32 1.23 1.26 1.28 1.39 1.54 1.56 1.56 1.70 1.92 1.98 2.18 2.27 2.26 2.14 2.24 2.37 2.15
0.77 0.99 1.21 1.36 1.38 1.29 1.23 1.23 1.26 1.26 1.26 1.26 1.28 1.30 1.25 1.22 1.25 1.31 1.33 1.29 1.26 1.24 1.21 1.15 1.20 1.40 1.56 1.73 1.79 1.98 2.09 2.14 2.09 2.07 1.99 1.87 2.05 2.05
0.84 1.01 1.14 1.22 1.26 1.26 1.19 1.16 1.17 1.21 1.26 1.24 1.24 1.30 1.30 1.27 1.25 1.30 1.29 1.20 1.16 1.18 1.20 1.18 1.19 1.24 1.40 1.61 1.90 2.10 2.03 1.86 1.79 1.87 1.80 1.68 1.82 1.90
0.87 0.96 1.04 1.06 1.05 1.06 1.03 1.01 1.05 1.09 1.10 1.09 1.10 1.15 1.20 1.24 1.25 1.22 1.20 1.12 1.12 1.17 1.25 1.29 1.27 1.23 1.19 1.29 1.58 1.83 1.86 1.82 1.63 1.53 1.48 1.46 1.49 1.52
0.80 0.87 0.92 0.90 0.91 0.92 0.89 0.86 0.88 0.89 0.87 0.88 0.91 0.96 1.01 1.07 1.07 1.03 1.02 1.03 1.09 1.11 1.13 1.14 1.13 1.16 1.19 1.29 1.46 1.64 1.65 1.50 1.44 1.46 1.40 1.24 1.14 1.29
0.78 0.78 0.83 0.86 0.85 0.87 0.86 0.82 0.80 0.79 0.77 0.78 0.82 0.88 0.92 0.93 0.89 0.88 0.87 0.88 0.94 0.96 0.99 1.05 1.08 1.13 1.13 1.12 1.18 1.26 1.26 1.21 1.13 1.15 1.32 1.32 1.14 1.16